Airport METAR Information

LTBA 190150Z 35006KT 3200 BR FEW004 11/10 Q1024 NOSIG

VATSIM Livefeed

Card image cap

ATC Bookings

No position booked

Card image cap

Active ATC

No controllers online

Blog

Read our latest news and get to know us better.